GPS BIIF-10

Last updated on Tue Oct 21 2025 00:02:35 GMT+0000 (Coordinated Universal Time)

1 40730U 15033A 25293.40352090 -.00000049 00000+0 00000+0 0 9992 2 40730 54.1764 276.9661 0107637 25.6951 334.8189 2.00568351 75189
UTC large
Height (km)
Speed (km/s)
/
Latitude / Longitude
Inclination (degrees)
Orbital Period (minutes)
Azimuth
Elevation
Range (km)
Doppler Factor

Next 0 passes for location: London (51.5072 / 0.1276)

Sorry there are no passes over London.